EW8360 Weather Reports


time (UTC)temp
F
wind
direction
speed
knots
gust
knots
rain 1hr
in
rain 24hr
in
rain mn
in
humidity
%
barometer
mb
20200531070011 63 16 2.6 4.3 0.00 0.00 0.00 86 1012.1
20200531065512 63 323 0.0 4.3 0.00 0.00 0.00 86 1012.0
20200531065009 63 356 0.9 4.3 0.00 0.00 0.00 86 1012.0
20200531064509 63 18 2.6 7.0 0.00 0.00 0.00 86 1012.0
20200531064011 63 11 1.7 7.0 0.00 0.00 0.00 86 1012.1
20200531063510 63 41 4.3 8.7 0.00 0.00 0.00 85 1012.2
20200531063010 63 23 1.7 8.7 0.00 0.00 0.00 85 1012.2
20200531062508 63 7 2.6 7.0 0.00 0.00 0.00 85 1012.2
20200531062008 63 16 0.9 7.0 0.00 0.00 0.00 85 1012.4
20200531061511 63 62 0.9 7.0 0.00 0.00 0.00 85 1012.4
20200531061011 63 354 0.9 7.0 0.00 0.00 0.00 84 1012.4
20200531060508 63 37 3.5 4.3 0.00 0.00 0.00 84 1012.5
20200531060007 64 344 1.7 7.0 0.00 0.00 0.00 84 1012.5
20200531055510 64 48 1.7 7.0 0.00 0.00 0.00 83 1012.5
20200531055014 64 47 1.7 7.0 0.00 0.00 0.00 83 1012.5
20200531054508 64 20 0.9 8.7 0.00 0.00 0.00 83 1012.5
20200531054008 64 14 2.6 8.7 0.00 0.00 0.00 83 1012.6
20200531053510 64 17 5.2 8.7 0.00 0.00 0.00 84 1012.6
20200531053010 64 107 2.6 8.7 0.00 0.00 0.00 84 1012.6
20200531052509 64 6 4.3 8.7 0.00 0.00 0.00 83 1012.6
20200531052007 64 346 4.3 8.7 0.00 0.00 0.00 84 1012.6
20200531051510 64 35 5.2 8.7 0.00 0.00 0.00 85 1012.6
20200531051010 64 7 3.5 8.7 0.00 0.00 0.00 86 1012.6
20200531050509 64 4 4.3 11.3 0.00 0.00 0.00 86 1012.6
20200531050008 64 350 3.5 11.3 0.00 0.00 0.00 85 1012.6
20200531045510 64 178 0.9 14.8 0.00 0.00 0.00 85 1012.6
20200531045009 64 14 2.6 14.8 0.00 0.00 0.00 85 1012.6
20200531044506 64 342 8.7 13.0 0.00 0.00 0.00 85 1012.6
20200531044008 64 25 5.2 13.0 0.00 0.00 0.00 85 1012.6
20200531043509 64 340 7.8 13.0 0.00 0.00 0.00 85 1012.5
20200531043009 64 14 5.2 13.0 0.00 0.00 0.00 85 1012.5
20200531042505 64 20 4.3 11.3 0.00 0.00 0.00 85 1012.5
20200531042007 64 2 5.2 13.0 0.00 0.00 0.00 85 1012.4
20200531041508 64 18 4.3 13.0 0.00 0.00 0.00 84 1012.5
20200531041009 64 357 5.2 14.8 0.00 0.00 0.00 84 1012.3
20200531040505 64 348 12.2 14.8 0.00 0.00 0.00 84 1012.3
20200531040007 64 14 3.5 13.0 0.00 0.00 0.00 84 1012.3
20200531035507 65 320 7.8 13.0 0.00 0.00 0.00 83 1012.3
20200531035012 65 351 4.3 13.0 0.00 0.00 0.00 84 1012.2
20200531034508 65 16 4.3 14.8 0.00 0.00 0.00 83 1012.1
20200531034005 65 354 3.5 14.8 0.00 0.00 0.00 83 1012.2
20200531033506 65 22 6.1 21.7 0.00 0.00 0.00 83 1012.2
20200531033008 65 29 6.1 21.7 0.00 0.00 0.00 83 1012.1
20200531032507 65 338 7.8 17.4 0.00 0.00 0.00 82 1012.0
20200531032004 65 345 12.2 17.4 0.00 0.00 0.00 82 1012.0
20200531031504 65 341 10.4 21.7 0.00 0.00 0.00 82 1012.0
20200531031007 65 114 5.2 21.7 0.00 0.00 0.00 81 1012.0
20200531030511 65 344 9.6 14.8 0.00 0.00 0.00 81 1011.9
20200531030004 65 25 8.7 13.0 0.00 0.00 0.00 81 1011.9
20200531025504 66 335 8.7 20.0 0.00 0.00 0.00 80 1012.0
20200531025007 66 10 7.8 20.0 0.00 0.00 0.00 80 1012.1
20200531024507 66 351 11.3 20.0 0.00 0.00 0.00 80 1012.0
20200531024006 66 0 9.6 17.4 0.00 0.00 0.00 80 1012.0
20200531023503 67 10 5.2 13.0 0.00 0.00 0.00 79 1012.0
20200531023006 67 355 7.0 13.0 0.00 0.00 0.00 78 1012.0
20200531022506 67 20 8.7 13.0 0.00 0.00 0.00 78 1011.9
20200531022005 67 7 3.5 14.8 0.00 0.00 0.00 77 1012.0
20200531021505 67 341 7.8 14.8 0.00 0.00 0.00 77 1011.9
20200531021007 68 344 5.2 13.0 0.00 0.00 0.00 76 1011.9
20200531020506 68 347 6.1 14.8 0.00 0.00 0.00 75 1011.9
20200531020006 68 323 7.0 20.0 0.00 0.00 0.00 73 1011.8
20200531015505 68 9 8.7 20.0 0.00 0.00 0.00 70 1011.8
20200531015005 69 10 7.8 21.7 0.00 0.00 0.00 69 1011.7
20200531014510 69 342 13.0 21.7 0.00 0.00 0.00 68 1011.6
20200531014002 69 7 6.1 20.0 0.00 0.00 0.00 66 1011.6
20200531013505 70 3 6.1 20.0 0.00 0.00 0.00 65 1011.6
20200531013005 70 329 4.3 20.0 0.00 0.00 0.00 64 1011.5
20200531012505 70 334 8.7 13.0 0.00 0.00 0.00 63 1011.6
20200531012002 70 341 6.1 14.8 0.00 0.00 0.00 64 1011.6
20200531011504 70 354 7.0 14.8 0.00 0.00 0.00 63 1011.6
20200531011005 70 353 5.2 13.0 0.00 0.00 0.00 64 1011.4
20200531010504 70 36 4.3 13.0 0.00 0.00 0.00 64 1011.5
20200531010003 70 9 5.2 17.4 0.00 0.00 0.00 64 1011.5
20200531005501 70 212 6.1 17.4 0.00 0.00 0.00 64 1011.5
20200531005003 70 333 10.4 14.8 0.00 0.00 0.00 65 1011.7
20200531004504 70 339 2.6 14.8 0.00 0.00 0.00 67 1011.7
20200531004000 70 356 3.5 14.8 0.00 0.00 0.00 69 1011.9
20200531003501 70 266 7.0 20.0 0.00 0.00 0.00 69 1011.9
20200531003004 71 326 2.6 20.0 0.00 0.00 0.00 68 1012.0
20200531002503 71 22 7.0 17.4 0.00 0.00 0.00 66 1011.9
20200531002004 71 3 3.5 14.8 0.00 0.00 0.00 67 1011.9
20200531001500 71 315 6.1 14.8 0.00 0.00 0.00 68 1012.0
20200531001000 71 309 5.2 14.8 0.00 0.00 0.00 69 1012.0
20200531000509 71 297 5.2 13.0 0.00 0.00 0.00 68 1012.1
20200531000003 71 43 3.5 14.8 0.00 0.00 0.00 69 1012.0
20200530235459 71 330 4.3 14.8 0.00 0.00 0.00 67 1012.1
20200530235003 71 249 4.3 17.4 0.00 0.00 0.00 69 1012.1
20200530234503 71 335 5.2 17.4 0.00 0.00 0.00 69 1012.1
20200530234002 71 337 6.1 13.0 0.00 0.00 0.00 69 1012.1
20200530233500 71 308 6.1 11.3 0.00 0.00 0.00 69 1012.2
20200530232959 71 330 4.3 14.8 0.00 0.00 0.00 70 1012.1
20200530232502 71 262 3.5 14.8 0.00 0.00 0.00 70 1012.2
20200530232002 71 264 3.5 11.3 0.00 0.00 0.00 69 1012.2
20200530231459 71 337 4.3 13.0 0.00 0.00 0.00 69 1012.4
20200530230959 71 335 5.2 13.0 0.00 0.00 0.00 70 1012.2
20200530230502 71 257 4.3 13.0 0.00 0.00 0.00 70 1012.4
20200530230002 70 183 3.5 14.8 0.00 0.00 0.00 70 1012.4
20200530225501 70 18 5.2 14.8 0.00 0.00 0.00 70 1012.3
20200530224958 70 357 7.0 13.0 0.00 0.00 0.00 70 1012.4
20200530224502 70 57 3.5 13.0 0.00 0.00 0.00 70 1012.5
20200530224003 70 314 5.2 13.0 0.00 0.00 0.00 71 1012.5
20200530223500 70 303 5.2 14.8 0.00 0.00 0.00 70 1012.5
20200530223001 70 270 5.2 14.8 0.00 0.00 0.00 71 1012.5
20200530222501 70 322 4.3 11.3 0.00 0.00 0.00 70 1012.5
20200530222001 70 311 4.3 11.3 0.00 0.00 0.00 71 1012.6
20200530221457 70 279 5.2 17.4 0.00 0.00 0.00 69 1012.6
20200530220957 70 15 1.7 17.4 0.00 0.00 0.00 70 1012.5
20200530220500 70 20 1.7 14.8 0.00 0.00 0.00 70 1012.7
20200530220001 70 317 2.6 14.8 0.00 0.00 0.00 71 1012.6
20200530215500 70 22 1.7 13.0 0.00 0.00 0.00 71 1012.6
20200530214957 70 7 5.2 13.0 0.00 0.00 0.00 69 1012.6
20200530214501 70 251 7.0 14.8 0.00 0.00 0.00 68 1012.7
20200530214000 70 90 10.4 14.8 0.00 0.00 0.00 68 1012.8
20200530213459 70 341 3.5 13.0 0.00 0.00 0.00 69 1012.8
20200530212957 70 335 3.5 14.8 0.00 0.00 0.00 70 1012.8
20200530212458 70 327 2.6 14.8 0.00 0.00 0.00 70 1012.8
20200530211959 70 59 4.3 14.8 0.00 0.00 0.00 69 1012.8
20200530211457 70 226 4.3 14.8 0.00 0.00 0.00 68 1012.8
20200530210959 70 254 7.8 14.8 0.00 0.00 0.00 68 1012.8
20200530210456 70 261 7.8 14.8 0.00 0.00 0.00 66 1012.8
20200530205958 70 335 7.8 14.8 0.00 0.00 0.00 68 1012.9
20200530205503 70 32 7.8 13.0 0.00 0.00 0.00 68 1012.9
20200530204956 70 214 5.2 14.8 0.00 0.00 0.00 68 1012.9
20200530204456 71 10 6.1 14.8 0.00 0.00 0.00 68 1013.0
20200530203959 71 326 4.3 11.3 0.00 0.00 0.00 68 1013.0
20200530203457 71 317 7.0 11.3 0.00 0.00 0.00 65 1013.1
20200530202957 71 1 4.3 11.3 0.00 0.00 0.00 66 1013.0
20200530202455 71 249 4.3 13.0 0.00 0.00 0.00 67 1013.0
20200530201958 70 296 7.0 13.0 0.00 0.00 0.00 66 1013.0
20200530201458 70 311 3.5 14.8 0.00 0.00 0.00 66 1013.1
20200530200955 70 71 0.9 14.8 0.00 0.00 0.00 67 1013.1
20200530200455 70 12 6.1 14.8 0.00 0.00 0.00 62 1013.1
20200530195958 70 332 4.3 13.0 0.00 0.00 0.00 62 1013.2
20200530195456 70 352 10.4 14.8 0.00 0.00 0.00 64 1013.1
20200530194956 70 339 9.6 14.8 0.00 0.00 0.00 63 1013.1
20200530194456 70 342 7.0 14.8 0.00 0.00 0.00 62 1013.0
20200530193958 69 13 5.2 14.8 0.00 0.00 0.00 62 1013.0
20200530193457 69 355 0.9 14.8 0.00 0.00 0.00 63 1013.2
20200530192956 68 14 6.1 14.8 0.00 0.00 0.00 64 1013.2
20200530192456 68 328 4.3 14.8 0.00 0.00 0.00 63 1013.3
20200530191957 67 338 10.4 14.8 0.00 0.00 0.00 65 1013.3
20200530191457 67 357 7.0 17.4 0.00 0.00 0.00 65 1013.3
20200530190956 67 355 7.8 17.4 0.00 0.00 0.00 67 1013.4
20200530190454 66 9 9.6 14.8 0.00 0.00 0.00 67 1013.5
20200530185957 66 312 6.1 17.4 0.00 0.00 0.00 68 1013.5
20200530185457 66 331 11.3 20.0 0.00 0.00 0.00 69 1013.4
20200530184953 66 338 6.1 20.0 0.00 0.00 0.00 69 1013.5
20200530184453 66 326 9.6 14.8 0.00 0.00 0.00 69 1013.5
20200530183955 66 9 7.8 14.8 0.00 0.00 0.00 69 1013.5
20200530183456 66 345 11.3 14.8 0.00 0.00 0.00 69 1013.6
20200530182953 66 37 5.2 14.8 0.00 0.00 0.00 69 1013.5
20200530182453 67 34 6.1 14.8 0.00 0.00 0.00 68 1013.5
20200530181956 67 350 8.7 14.8 0.00 0.00 0.00 69 1013.4
20200530181457 67 351 7.8 14.8 0.00 0.00 0.00 68 1013.5
20200530180955 67 348 11.3 14.8 0.00 0.00 0.00 69 1013.5
20200530180452 67 334 6.1 14.8 0.00 0.00 0.00 71 1013.6
20200530175954 67 344 1.7 14.8 0.00 0.00 0.00 71 1013.6
20200530175455 67 309 4.3 11.3 0.00 0.00 0.00 69 1013.6
20200530174954 67 327 4.3 14.8 0.00 0.00 0.00 69 1013.6
20200530174452 67 4 5.2 14.8 0.00 0.00 0.00 71 1013.6
20200530173952 67 5 2.6 11.3 0.00 0.00 0.00 69 1013.5
20200530173455 67 10 6.1 11.3 0.00 0.00 0.00 71 1013.4
20200530172955 66 353 5.2 14.8 0.00 0.00 0.00 72 1013.5
20200530172451 66 342 7.8 14.8 0.00 0.00 0.00 71 1013.5
20200530171951 66 358 5.2 11.3 0.00 0.00 0.00 70 1013.4
20200530171454 66 333 0.9 13.0 0.00 0.00 0.00 73 1013.5
20200530170955 66 5 5.2 13.0 0.00 0.00 0.00 72 1013.6
20200530170451 66 0 5.2 11.3 0.00 0.00 0.00 71 1013.7
20200530165951 66 0 6.1 13.0 0.00 0.00 0.00 73 1013.6
20200530165454 66 339 5.2 14.8 0.00 0.00 0.00 72 1013.7
20200530164954 66 338 11.3 14.8 0.00 0.00 0.00 70 1013.7
20200530164451 66 348 7.0 13.0 0.00 0.00 0.00 71 1013.8
20200530163951 65 321 5.2 14.8 0.00 0.00 0.00 72 1013.8
20200530162954 66 321 7.0 13.0 0.00 0.00 0.00 72 1013.8
20200530162452 66 18 5.2 13.0 0.00 0.00 0.00 73 1013.8
20200530161952 66 351 8.7 13.0 0.00 0.00 0.00 72 1013.8
20200530161454 66 344 2.6 13.0 0.00 0.00 0.00 73 1013.8
20200530160954 66 301 5.2 13.0 0.00 0.00 0.00 72 1013.8
20200530160452 66 159 2.6 11.3 0.00 0.00 0.00 72 1013.8
20200530155950 66 4 7.0 11.3 0.00 0.00 0.00 73 1013.8
20200530155452 65 16 1.7 8.7 0.00 0.00 0.00 73 1013.8
20200530154952 65 352 3.5 11.3 0.00 0.00 0.00 70 1013.8
20200530154451 64 19 1.7 11.3 0.00 0.00 0.00 73 1013.8
20200530153951 64 9 7.0 11.3 0.00 0.00 0.00 74 1013.9
20200530153451 64 335 4.3 8.7 0.00 0.00 0.00 73 1014.0
20200530152953 64 356 3.5 8.7 0.00 0.00 0.00 75 1013.9
20200530152452 64 12 6.1 8.7 0.00 0.00 0.00 75 1013.9
20200530151950 63 12 2.6 11.3 0.00 0.00 0.00 75 1013.8
20200530151452 63 341 7.0 11.3 0.00 0.00 0.00 77 1013.8
20200530150952 63 336 5.2 11.3 0.00 0.00 0.00 78 1013.9
20200530150448 63 129 3.5 8.7 0.00 0.00 0.00 76 1013.8
20200530145948 63 321 3.5 8.7 0.00 0.00 0.00 76 1013.9
20200530145450 63 15 6.1 11.3 0.00 0.00 0.00 76 1013.8
20200530144951 63 359 7.8 11.3 0.00 0.00 0.00 76 1013.7
20200530144448 63 27 4.3 8.7 0.00 0.00 0.00 76 1013.6
20200530143950 63 7 2.6 11.3 0.00 0.00 0.00 76 1013.7
20200530143450 62 356 2.6 13.0 0.00 0.00 0.00 77 1013.6
20200530142952 62 334 7.0 13.0 0.00 0.00 0.00 77 1013.6
20200530142450 62 14 3.5 13.0 0.00 0.00 0.00 78 1013.6
20200530141947 62 342 7.8 13.0 0.00 0.00 0.00 78 1013.6
20200530141447 62 356 7.8 13.0 0.00 0.00 0.00 77 1013.6
20200530140950 62 335 5.2 11.3 0.00 0.00 0.00 77 1013.4
20200530140451 62 22 3.5 11.3 0.00 0.00 0.00 77 1013.4
20200530135947 62 352 7.8 11.3 0.00 0.00 0.00 78 1013.4
20200530135451 62 346 7.8 11.3 0.00 0.00 0.00 77 1013.3
20200530134954 62 338 5.2 13.0 0.00 0.00 0.00 78 1013.3
20200530134451 62 12 5.2 13.0 0.00 0.00 0.00 78 1013.3
20200530133947 62 23 3.5 8.7 0.00 0.00 0.00 78 1013.3
20200530133446 62 11 3.5 11.3 0.00 0.00 0.00 78 1013.3
20200530132948 62 2 7.0 13.0 0.00 0.00 0.00 78 1013.3
20200530132449 62 72 2.6 13.0 0.00 0.00 0.00 79 1013.3
20200530131948 62 9 9.6 13.0 0.00 0.00 0.00 78 1013.2
20200530131446 62 15 3.5 8.7 0.00 0.00 0.00 79 1013.2
20200530130950 62 22 5.2 13.0 0.00 0.00 0.00 79 1013.2
20200530130448 62 9 7.8 13.0 0.00 0.00 0.00 80 1013.2
20200530125948 62 16 4.3 11.3 0.00 0.00 0.00 80 1013.1
20200530125448 62 10 7.8 11.3 0.00 0.00 0.00 80 1013.2
20200530124949 62 20 6.1 11.3 0.00 0.00 0.00 80 1013.1
20200530124448 62 22 4.3 8.7 0.00 0.00 0.00 83 1013.1
20200530123945 62 34 5.2 13.0 0.00 0.00 0.00 83 1012.9
20200530123448 62 31 7.0 13.0 0.00 0.00 0.00 83 1012.9
20200530122948 62 13 5.2 11.3 0.00 0.00 0.00 84 1012.9
20200530122448 62 6 5.2 13.0 0.00 0.00 0.00 84 1012.9
20200530121949 62 16 4.3 13.0 0.00 0.00 0.00 84 1012.9
20200530121447 62 9 2.6 11.3 0.00 0.00 0.00 85 1013.0
20200530120949 62 14 3.5 11.3 0.00 0.00 0.00 85 1012.9
20200530120448 62 358 7.8 11.3 0.00 0.00 0.00 85 1012.8
20200530115945 62 21 3.5 8.7 0.00 0.00 0.00 86 1012.8
20200530115444 62 20 3.5 8.7 0.00 0.00 0.00 86 1012.7
20200530114946 62 27 5.2 13.0 0.00 0.00 0.00 86 1012.6
20200530114447 62 354 7.8 13.0 0.00 0.00 0.00 86 1012.6
20200530113944 62 9 4.3 11.3 0.00 0.00 0.00 86 1012.6
20200530113444 62 104 1.7 11.3 0.00 0.00 0.00 86 1012.6
20200530112945 62 7 3.5 11.3 0.00 0.00 0.00 86 1012.6
20200530112447 62 24 4.3 13.0 0.00 0.00 0.00 86 1012.6
20200530111950 62 10 4.3 13.0 0.00 0.00 0.00 86 1012.7
20200530111444 62 353 6.1 11.3 0.00 0.00 0.00 86 1012.7
20200530110943 62 13 2.6 13.0 0.00 0.00 0.00 85 1012.7
20200530110446 62 10 2.6 13.0 0.00 0.00 0.00 85 1012.7
20200530105946 62 354 4.3 8.7 0.00 0.00 0.00 85 1012.8
20200530105443 62 16 4.3 8.7 0.00 0.00 0.00 85 1012.7
20200530104943 62 23 2.6 8.7 0.00 0.00 0.00 85 1012.8
20200530104446 62 11 2.6 8.7 0.00 0.00 0.00 85 1012.9
20200530103945 62 3 5.2 8.7 0.00 0.00 0.00 85 1012.8
20200530103442 62 13 1.7 7.0 0.00 0.00 0.00 85 1012.7
20200530102942 62 354 1.7 7.0 0.00 0.00 0.00 84 1012.7
20200530102445 62 14 0.9 4.3 0.00 0.00 0.00 84 1012.7
20200530101945 62 328 0.0 4.3 0.00 0.00 0.00 84 1012.7
20200530101445 62 318 2.6 7.0 0.00 0.00 0.00 84 1012.8
20200530100942 62 323 1.7 7.0 0.00 0.00 0.00 84 1012.8
20200530100445 62 348 0.9 4.3 0.00 0.00 0.00 84 1012.8
20200530095949 62 272 0.0 1.7 0.00 0.00 0.00 85 1012.7
20200530095443 62 284 0.0 1.7 0.00 0.00 0.00 85 1012.9
20200530094942 62 312 0.0 1.7 0.00 0.00 0.00 85 1012.7
20200530094458 62 297 0.0 1.7 0.00 0.00 0.00 85 1012.7
20200530093944 62 284 0.0 1.7 0.00 0.00 0.00 85 1012.7
20200530093441 63 253 0.0 1.7 0.00 0.00 0.00 84 1012.7
20200530092943 63 287 0.0 1.7 0.00 0.00 0.00 83 1012.7
20200530092445 63 305 0.0 1.7 0.00 0.00 0.00 83 1012.7
20200530091944 63 328 0.0 1.7 0.00 0.00 0.00 83 1012.8
20200530091441 63 285 0.0 1.7 0.00 0.00 0.00 83 1012.7
20200530090943 63 26 0.0 1.7 0.00 0.00 0.00 83 1012.8
20200530090444 63 338 0.9 7.0 0.00 0.00 0.00 83 1012.8
20200530085944 63 18 0.9 7.0 0.00 0.00 0.00 84 1012.9
20200530085444 63 329 1.7 4.3 0.00 0.00 0.00 84 1013.1
20200530084940 63 320 0.9 4.3 0.00 0.00 0.00 84 1013.1
20200530084442 63 50 1.7 4.3 0.00 0.00 0.00 83 1013.0
20200530083943 62 40 0.0 4.3 0.00 0.00 0.00 83 1013.2
20200530083440 62 38 0.9 4.3 0.00 0.00 0.00 83 1013.2
20200530082940 63 350 0.0 0.0 0.00 0.00 0.00 84 1013.3
20200530082442 63 317 0.0 0.0 0.00 0.00 0.00 84 1013.4
20200530081942 63 296 0.0 0.0 0.00 0.00 0.00 84 1013.5
20200530081440 63 159 0.0 0.0 0.00 0.00 0.00 83 1013.5
20200530080939 63 227 0.0 0.0 0.00 0.00 0.00 83 1013.6
20200530080440 63 4 0.0 1.7 0.00 0.00 0.00 83 1013.7
20200530075942 63 356 0.0 4.3 0.00 0.00 0.00 83 1013.9
20200530075442 63 64 0.9 4.3 0.00 0.00 0.00 83 1013.9
20200530074943 63 70 0.0 1.7 0.00 0.00 0.00 83 1014.0
20200530074439 63 357 0.0 1.7 0.00 0.00 0.00 83 1014.1
20200530073942 63 356 0.0 4.3 0.00 0.00 0.00 83 1014.1
20200530073443 63 76 0.0 4.3 0.00 0.00 0.00 83 1014.3
20200530072939 62 114 0.0 1.7 0.00 0.00 0.00 83 1014.3
20200530072439 62 173 0.0 0.0 0.00 0.00 0.00 82 1014.4
20200530071941 62 128 0.0 1.7 0.00 0.00 0.00 83 1014.5
20200530071441 62 60 0.0 1.7 0.00 0.00 0.00 82 1014.6
20200530070939 62 302 0.0 4.3 0.00 0.00 0.00 82 1014.6
20200530070438 62 359 0.0 4.3 0.00 0.00 0.00 82 1014.6